Location: Unspecified
(0.0000°N, 0.0000°E)
Time: 21:38:15
(UTC+00:00)

Tiros 1 despin weight - All Passes

Search period start: 01 October 2020 00:00
Search period end: 11 October 2020 00:00
Orbit: 593 x 642 km, 48.2° (Epoch: 30 September)

Date Brightness Start Highest point End Pass type
(mag) Time Alt. Az. Time Alt. Az. Time Alt. Az.
01 Oct - 07:49:57 10° SW 07:54:16 58° NW 07:58:36 10° NNE daylight
01 Oct - 18:17:56 10° N 18:21:02 17° NE 18:24:09 10° E visible
01 Oct - 19:58:09 10° WNW 20:02:27 36° SW 20:06:45 10° SSE visible
02 Oct - 06:25:38 10° S 06:29:20 26° SE 06:32:59 10° ENE daylight
02 Oct - 08:07:20 10° W 08:10:41 21° NW 08:14:00 10° N daylight
02 Oct - 18:33:00 10° NNW 18:37:27 45° NE 18:41:56 10° ESE visible
02 Oct - 20:16:22 10° W 20:18:53 14° SW 20:21:26 10° SSW visible
03 Oct - 06:41:19 10° SW 06:45:43 74° SE 06:50:05 10° NE daylight
03 Oct - 18:49:13 10° NW 18:53:50 66° SW 18:58:30 10° SSE visible
04 Oct - 05:18:13 10° SSE 05:20:43 15° SE 05:23:13 10° E visible
04 Oct - 06:58:01 10° WSW 07:02:06 37° NW 07:06:10 10° NNE daylight
04 Oct - 17:25:00 10° N 17:28:51 25° NE 17:32:43 10° ESE daylight
04 Oct - 19:06:26 10° WNW 19:10:15 25° SW 19:14:05 10° S visible
05 Oct - 05:33:01 10° SSW 05:37:09 39° SE 05:41:16 10° ENE daylight
05 Oct - 07:16:12 10° W 07:18:31 14° NW 07:20:51 10° NNW daylight
05 Oct - 17:40:37 10° NNW 17:45:14 69° NE 17:49:55 10° SE daylight
06 Oct - 05:49:08 10° SW 05:53:32 71° NW 05:57:54 10° NNE daylight
06 Oct - 16:17:36 10° NNE 16:20:13 15° NE 16:22:50 10° E daylight
06 Oct - 17:57:12 10° WNW 18:01:37 43° SW 18:06:05 10° SSE daylight
07 Oct - 04:25:07 10° S 04:28:34 22° SE 04:32:00 10° ENE visible
07 Oct - 06:06:19 10° WSW 06:09:55 25° NW 06:13:31 10° N daylight
07 Oct - 16:32:20 10° NNW 16:36:38 37° NE 16:40:58 10° ESE daylight
07 Oct - 18:15:03 10° W 18:18:04 17° SW 18:21:05 10° S visible
08 Oct - 04:40:36 10° SSW 04:44:58 61° SE 04:49:19 10° NE visible
08 Oct - 16:48:22 10° NW 16:53:01 79° SW 16:57:42 10° SE daylight
09 Oct - 03:17:59 10° SSE 03:19:57 13° SE 03:21:53 10° ESE visible
09 Oct - 04:57:07 10° SW 05:01:21 44° NW 05:05:33 10° NNE visible
09 Oct - 15:24:28 10° N 15:28:02 22° NE 15:31:36 10° E daylight
09 Oct - 17:05:24 10° WNW 17:09:25 29° SW 17:13:28 10° S daylight
10 Oct - 03:32:22 10° SSW 03:36:24 33° SE 03:40:22 10° ENE visible
10 Oct - 05:14:55 10° W 05:17:45 17° NW 05:20:34 10° N visible
10 Oct - 15:39:53 10° NNW 15:44:25 57° NE 15:49:01 10° SE daylight
10 Oct - 17:24:28 10° WSW 17:25:54 11° SW 17:27:20 10° SSW daylight
